Regional Weather Roundup
Issued by NWS

Home | Current Version | Previous Version | Text Only | Print | Product List | Glossary Off
Versions: 1 2 3 4 5 6 7 8 9 10 11 12 13 14 15 16 17 18 19 20 21 22 23 24 25 26 27 28 29 30 31 32 33 34 35 36 37 38 39 40 41 42 43 44 45 46 47 48 49 50

000
ASUS43 KOAX 030902
RWRNE

WEATHER ROUNDUP FOR NEBRASKA
NATIONAL WEATHER SERVICE OMAHA NE
400 AM CDT THU SEP 03 2015

NOTES: SATELLITE DATA IS BEING USED TO AUGMENT CLOUD COVER ABOVE
       12000 FEET.
       "FAIR" INDICATES FEW OR NO CLOUDS BELOW 12,000 FEET WITH NO
       SIGNIFICANT WEATHER AND/OR OBSTRUCTIONS TO VISIBILITY.

  * THESE STATIONS DO NOT REPORT WEATHER SUCH AS RAIN...SNOW OR FOG.

NEZ001>004-019>022-054>056-031000-
NEBRASKA PANHANDLE

CITY           SKY/WX    TMP DP  RH WIND       PRES   REMARKS
SCOTTSBLUFF    PTCLDY    64  51  62 N5        29.91S
ALLIANCE       PTCLDY    60  52  74 CALM      29.90R
CHADRON        PTCLDY    64  48  56 CALM      29.82F
KIMBALL        MOCLDY    62  46  55 CALM      29.96F
SIDNEY         PTCLDY    56  46  69 W8        29.94S
$$

NEZ057>060-069>072-079>082-031000-
SOUTHWEST NEBRASKA

CITY           SKY/WX    TMP DP  RH WIND       PRES   REMARKS
NORTH PLATTE   CLEAR     64  61  90 CALM      29.83S
IMPERIAL       PTCLDY    65  56  72 W5        29.85F
LEXINGTON      CLEAR     66  62  85 SE6       29.83S
MCCOOK         PTCLDY    71  56  58 S5        29.81F
$$

NEZ005>010-023>029-035>040-094-031000-
NORTH CENTRAL NEBRASKA

CITY           SKY/WX    TMP DP  RH WIND       PRES   REMARKS
VALENTINE      CLEAR     70  60  70 CALM      29.82S
BROKEN BOW     CLEAR     61  59  93 CALM      29.83F
ORD            CLEAR     62  61  96 SE3       29.81S
$$

NEZ041-046>049-061>064-073>077-083>087-031000-
SOUTH CENTRAL NEBRASKA

CITY           SKY/WX    TMP DP  RH WIND       PRES   REMARKS
GRAND ISLAND   CLEAR     71  64  78 S10       29.82F
AURORA         CLEAR     71  66  86 S8        29.82F
HASTINGS       CLEAR     73  63  70 S8        29.83F
KEARNEY *      CLEAR     70  59  68 S10       29.83S
YORK           CLEAR     72  66  83 S10       29.83F
$$

NEZ011>018-030>034-042>045-031000-
NORTHEAST NEBRASKA

CITY           SKY/WX    TMP DP  RH WIND       PRES   REMARKS
NORFOLK        CLEAR     67  65  93 E3        29.82S
BLAIR          CLEAR     72  67  86 S8        29.85S
COLUMBUS *     CLEAR     72  63  73 S5        29.83S
FREMONT        CLEAR     73  67  80 SE6       29.84S
TEKAMAH        PTCLDY    71  69  93 SE6       29.84S
$$

NEZ050>053-065>068-078-088>093-031000-
SOUTHEAST NEBRASKA

CITY           SKY/WX    TMP DP  RH WIND       PRES   REMARKS
LINCOLN        CLEAR     75  67  76 S10       29.84S
OMAHA EPPLEY   CLEAR     76  69  79 S13       29.85S
FALLS CITY     MOCLDY    74  69  85 S8        29.88S
NEBRASKA CITY  PTCLDY    72  66  80 S9        29.87F
PLATTSMOUTH    CLEAR     72  67  84 CALM      29.86S
$$

NEZ044-045-051>053-067-031000-
OMAHA AREA

CITY           SKY/WX    TMP DP  RH WIND       PRES   REMARKS
OMAHA EPPLEY   CLEAR     76  69  79 S13       29.85S
BLAIR          CLEAR     72  67  86 S8        29.85S
FREMONT        CLEAR     73  67  80 SE6       29.84S
OFFUTT AFB     CLEAR     73  69  88 SE8       29.85S
PLATTSMOUTH    CLEAR     72  67  84 CALM      29.86S
WAHOO          FAIR      69  67  92 SE6       29.84S
$$




USA.gov is the U.S. government's official web portal to all federal, state and local government web resources and services.